ATHENA-FIDUS

Last updated on Thu Jul 03 2025 00:02:46 GMT+0000 (Coordinated Universal Time)

1 39509U 14006B 25183.57413689 .00000161 00000+0 00000+0 0 9995 2 39509 0.0273 113.5750 0001051 5.9935 45.7564 1.00272106 41577
UTC large
Height (km)
Speed (km/s)
/
Latitude / Longitude
Inclination (degrees)
Orbital Period (minutes)
Azimuth
Elevation
Range (km)
Doppler Factor

Next 0 passes for location: London (51.5072 / 0.1276)

Sorry there are no passes over London.